| time (UTC) | temp F | wind direction | speed MPH | gust MPH | rain 1hr in | rain 24hr in | rain mn in | humidity % | barometer mb |
| 20260903053116 | 81 | 355 | 1.0 | 8.0 | 0.00 | 0.00 | 0.00 | 57 | 1012.3 |
| 20260903051532 | 80 | 307 | 1.0 | 9.0 | 0.00 | 0.00 | 0.00 | 56 | 1012.4 |
| 20260903050126 | 80 | 73 | 0.0 | 4.0 | 0.00 | 0.00 | 0.00 | 54 | 1012.4 |
| 20260903044544 | 81 | 95 | 3.0 | 9.0 | 0.00 | 0.00 | 0.00 | 51 | 1012.4 |
| 20260903043136 | 81 | 302 | 1.0 | 7.0 | 0.00 | 0.00 | 0.00 | 50 | 1012.3 |
| 20260903041609 | 81 | 340 | 0.0 | 4.0 | 0.00 | 0.00 | 0.00 | 48 | 1012.0 |
| 20260903040017 | 81 | 104 | 0.0 | 6.0 | 0.00 | 0.00 | 0.00 | 48 | 1012.0 |
| 20260903034520 | 81 | 106 | 0.0 | 4.0 | 0.00 | 0.00 | 0.00 | 46 | 1011.8 |
| 20260903033015 | 81 | 104 | 0.0 | 4.0 | 0.00 | 0.00 | 0.00 | 46 | 1011.8 |
| 20260903031510 | 82 | 65 | 0.0 | 2.0 | 0.00 | 0.00 | 0.00 | 44 | 1011.9 |
| 20260903030007 | 82 | 65 | 0.0 | 3.0 | 0.00 | 0.00 | 0.00 | 44 | 1011.8 |
| 20260903024503 | 82 | 65 | 0.0 | 1.0 | 0.00 | 0.00 | 0.00 | 44 | 1011.9 |
| 20260903023003 | 82 | 66 | 0.0 | 2.0 | 0.00 | 0.00 | 0.00 | 43 | 1011.9 |
| 20260903021502 | 82 | 62 | 0.0 | 1.0 | 0.00 | 0.00 | 0.00 | 43 | 1011.9 |
| 20260903020002 | 82 | 62 | 0.0 | 1.0 | 0.00 | 0.00 | 0.00 | 43 | 1011.9 |
| 20260903014603 | 82 | 62 | 0.0 | 2.0 | 0.00 | 0.00 | 0.00 | 42 | 1011.9 |
| 20260903013059 | 82 | 62 | 0.0 | 4.0 | 0.00 | 0.00 | 0.00 | 42 | 1011.9 |
| 20260903011604 | 82 | 61 | 1.0 | 3.0 | 0.00 | 0.00 | 0.00 | 42 | 1011.9 |
| 20260903010057 | 82 | 62 | 1.0 | 8.0 | 0.00 | 0.00 | 0.00 | 42 | 1011.9 |
| 20260903004557 | 82 | 355 | 1.0 | 4.0 | 0.00 | 0.00 | 0.00 | 41 | 1011.9 |
| 20260903003055 | 82 | 46 | 0.0 | 5.0 | 0.00 | 0.00 | 0.00 | 41 | 1012.0 |
| 20260903001554 | 82 | 355 | 3.0 | 8.0 | 0.00 | 0.00 | 0.00 | 41 | 1011.9 |
| 20260903000054 | 82 | 96 | 2.0 | 8.0 | 0.00 | 0.00 | 0.00 | 42 | 1012.0 |
| 20260902234604 | 83 | 92 | 0.0 | 7.0 | 0.00 | 0.00 | 0.00 | 41 | 1011.9 |
| 20260902233052 | 83 | 76 | 2.0 | 8.0 | 0.00 | 0.00 | 0.00 | 41 | 1012.1 |
| 20260902231551 | 83 | 104 | 2.0 | 10.0 | 0.00 | 0.00 | 0.00 | 40 | 1012.0 |
| 20260902230050 | 83 | 20 | 1.0 | 8.0 | 0.00 | 0.00 | 0.00 | 40 | 1012.1 |
| 20260902224548 | 83 | 360 | 2.0 | 8.0 | 0.00 | 0.00 | 0.00 | 40 | 1012.2 |
| 20260902223048 | 83 | 71 | 1.0 | 4.0 | 0.00 | 0.00 | 0.00 | 41 | 1012.3 |
| 20260902221544 | 83 | 14 | 0.0 | 1.0 | 0.00 | 0.00 | 0.00 | 41 | 1012.5 |
| 20260902220042 | 83 | 14 | 0.0 | 2.0 | 0.00 | 0.00 | 0.00 | 40 | 1012.4 |
| 20260902214541 | 84 | 14 | 0.0 | 2.0 | 0.00 | 0.00 | 0.00 | 40 | 1012.5 |
| 20260902213039 | 84 | 14 | 0.0 | 2.0 | 0.00 | 0.00 | 0.00 | 39 | 1012.6 |
| 20260902211537 | 84 | 14 | 0.0 | 2.0 | 0.00 | 0.00 | 0.00 | 39 | 1012.6 |
| 20260902210035 | 84 | 14 | 0.0 | 1.0 | 0.00 | 0.00 | 0.00 | 38 | 1012.6 |
| 20260902204535 | 84 | 14 | 0.0 | 1.0 | 0.00 | 0.00 | 0.00 | 38 | 1012.8 |
| 20260902203033 | 85 | 10 | 0.0 | 2.0 | 0.00 | 0.00 | 0.00 | 37 | 1012.7 |
| 20260902201535 | 85 | 14 | 1.0 | 3.0 | 0.00 | 0.00 | 0.00 | 37 | 1012.8 |
| 20260902200033 | 85 | 79 | 0.0 | 2.0 | 0.00 | 0.00 | 0.00 | 37 | 1012.8 |
| 20260902194533 | 85 | 79 | 0.0 | 3.0 | 0.00 | 0.00 | 0.00 | 36 | 1012.9 |
| 20260902193032 | 86 | 344 | 0.0 | 2.0 | 0.00 | 0.00 | 0.00 | 36 | 1012.9 |
| 20260902191531 | 86 | 343 | 0.0 | 3.0 | 0.00 | 0.00 | 0.00 | 36 | 1012.9 |
| 20260902190031 | 86 | 14 | 0.0 | 6.0 | 0.00 | 0.00 | 0.00 | 36 | 1012.8 |
| 20260902184531 | 86 | 355 | 0.0 | 4.0 | 0.00 | 0.00 | 0.00 | 36 | 1012.9 |
| 20260902183030 | 86 | 355 | 1.0 | 3.0 | 0.00 | 0.00 | 0.00 | 35 | 1012.7 |
| 20260902181531 | 86 | 360 | 1.0 | 6.0 | 0.00 | 0.00 | 0.00 | 35 | 1012.7 |
| 20260902180033 | 87 | 313 | 1.0 | 3.0 | 0.00 | 0.00 | 0.00 | 35 | 1012.6 |
| 20260902174528 | 87 | 312 | 0.0 | 2.0 | 0.00 | 0.00 | 0.00 | 34 | 1012.7 |
| 20260902173040 | 87 | 6 | 0.0 | 4.0 | 0.00 | 0.00 | 0.00 | 34 | 1012.6 |
| 20260902171527 | 88 | 324 | 0.0 | 4.0 | 0.00 | 0.00 | 0.00 | 34 | 1012.5 |
| 20260902170026 | 88 | 292 | 2.0 | 8.0 | 0.00 | 0.00 | 0.00 | 33 | 1012.4 |
| 20260902164525 | 89 | 328 | 2.0 | 9.0 | 0.00 | 0.00 | 0.00 | 33 | 1012.5 |
| 20260902163024 | 89 | 345 | 2.0 | 8.0 | 0.00 | 0.00 | 0.00 | 33 | 1012.6 |
| 20260902161525 | 90 | 355 | 2.0 | 10.0 | 0.00 | 0.00 | 0.00 | 32 | 1012.6 |
| 20260902160022 | 91 | 12 | 4.0 | 10.0 | 0.00 | 0.00 | 0.00 | 32 | 1012.7 |
| 20260902154526 | 91 | 16 | 3.0 | 8.0 | 0.00 | 0.00 | 0.00 | 32 | 1012.7 |
| 20260902153020 | 91 | 7 | 4.0 | 11.0 | 0.00 | 0.00 | 0.00 | 31 | 1012.6 |
| 20260902151520 | 92 | 337 | 3.0 | 10.0 | 0.00 | 0.00 | 0.00 | 31 | 1012.7 |
| 20260902150019 | 92 | 360 | 5.0 | 11.0 | 0.00 | 0.00 | 0.00 | 30 | 1012.7 |
| 20260902144518 | 92 | 10 | 1.0 | 11.0 | 0.00 | 0.00 | 0.00 | 30 | 1012.7 |
| 20260902143018 | 92 | 326 | 5.0 | 12.0 | 0.00 | 0.00 | 0.00 | 30 | 1012.8 |
| 20260902141515 | 92 | 317 | 4.0 | 11.0 | 0.00 | 0.00 | 0.00 | 30 | 1012.9 |
| 20260902140015 | 92 | 331 | 5.0 | 13.0 | 0.00 | 0.00 | 0.00 | 29 | 1013.1 |
| 20260902134513 | 92 | 350 | 6.0 | 13.0 | 0.00 | 0.00 | 0.00 | 29 | 1013.2 |
| 20260902133012 | 93 | 40 | 7.0 | 17.0 | 0.00 | 0.00 | 0.00 | 29 | 1013.2 |
| 20260902131513 | 93 | 299 | 6.0 | 14.0 | 0.00 | 0.00 | 0.00 | 28 | 1013.3 |
| 20260902130010 | 94 | 315 | 5.0 | 16.0 | 0.00 | 0.00 | 0.00 | 28 | 1013.4 |
| 20260902124511 | 94 | 355 | 5.0 | 16.0 | 0.00 | 0.00 | 0.00 | 27 | 1013.5 |
| 20260902123021 | 94 | 346 | 8.0 | 15.0 | 0.00 | 0.00 | 0.00 | 27 | 1013.4 |
| 20260902121508 | 94 | 83 | 5.0 | 16.0 | 0.00 | 0.00 | 0.00 | 27 | 1013.5 |
| 20260902120007 | 94 | 75 | 9.0 | 17.0 | 0.00 | 0.00 | 0.00 | 27 | 1013.7 |
| 20260902114504 | 94 | 333 | 5.0 | 12.0 | 0.00 | 0.00 | 0.00 | 27 | 1013.9 |
| 20260902113103 | 93 | 328 | 6.0 | 16.0 | 0.00 | 0.00 | 0.00 | 27 | 1014.0 |
| 20260902111604 | 94 | 350 | 6.0 | 18.0 | 0.00 | 0.00 | 0.00 | 27 | 1014.0 |
| 20260902110104 | 93 | 350 | 7.0 | 20.0 | 0.00 | 0.00 | 0.00 | 26 | 1014.2 |
| 20260902104556 | 93 | 49 | 7.0 | 20.0 | 0.00 | 0.00 | 0.00 | 25 | 1014.2 |
| 20260902103049 | 93 | 17 | 6.0 | 17.0 | 0.00 | 0.00 | 0.00 | 25 | 1014.1 |
| 20260902101547 | 93 | 66 | 10.0 | 19.0 | 0.00 | 0.00 | 0.00 | 25 | 1014.3 |
| 20260902100043 | 93 | 38 | 7.0 | 15.0 | 0.00 | 0.00 | 0.00 | 27 | 1014.4 |
| 20260902094543 | 93 | 337 | 7.0 | 17.0 | 0.00 | 0.00 | 0.00 | 27 | 1014.6 |
| 20260902093033 | 93 | 338 | 6.0 | 16.0 | 0.00 | 0.00 | 0.00 | 29 | 1014.6 |
| 20260902091529 | 93 | 305 | 4.0 | 13.0 | 0.00 | 0.00 | 0.00 | 30 | 1014.6 |
| 20260902090025 | 92 | 325 | 3.0 | 11.0 | 0.00 | 0.00 | 0.00 | 29 | 1014.5 |
| 20260902084520 | 92 | 316 | 4.0 | 14.0 | 0.00 | 0.00 | 0.00 | 30 | 1014.5 |
| 20260902083017 | 92 | 6 | 7.0 | 14.0 | 0.00 | 0.00 | 0.00 | 30 | 1014.5 |
| 20260902081511 | 91 | 21 | 5.0 | 15.0 | 0.00 | 0.00 | 0.00 | 31 | 1014.4 |
| 20260902080007 | 91 | 330 | 5.0 | 13.0 | 0.00 | 0.00 | 0.00 | 33 | 1014.5 |
| 20260902074503 | 90 | 343 | 6.0 | 15.0 | 0.00 | 0.00 | 0.00 | 34 | 1014.5 |
| 20260902073058 | 89 | 331 | 4.0 | 11.0 | 0.00 | 0.00 | 0.00 | 36 | 1014.4 |
| 20260902071554 | 88 | 33 | 3.0 | 8.0 | 0.00 | 0.00 | 0.00 | 37 | 1014.3 |
| 20260902070050 | 88 | 350 | 2.0 | 11.0 | 0.00 | 0.00 | 0.00 | 39 | 1014.3 |
| 20260902064546 | 87 | 31 | 2.0 | 9.0 | 0.00 | 0.00 | 0.00 | 39 | 1014.2 |
| 20260902063042 | 86 | 350 | 4.0 | 9.0 | 0.00 | 0.00 | 0.00 | 39 | 1014.2 |
| 20260902061604 | 86 | 89 | 1.0 | 11.0 | 0.00 | 0.00 | 0.00 | 41 | 1014.1 |
| 20260902060038 | 86 | 326 | 4.0 | 10.0 | 0.00 | 0.00 | 0.00 | 40 | 1014.2 |
| 20260902054543 | 85 | 54 | 1.0 | 5.0 | 0.00 | 0.00 | 0.00 | 43 | 1014.1 |